Regional Weather Roundup
Issued by NWS

Home | Current Version | Previous Version | Text Only | Print | Product List | Glossary Off
Versions: 1 2 3 4 5 6 7 8 9 10 11 12 13 14 15 16 17 18 19 20 21 22 23 24 25 26 27 28 29 30 31 32 33 34 35 36 37 38 39 40 41 42 43 44 45 46 47 48 49 50

496
ASUS43 KLSX 281107
RWRMO

WEATHER SUMMARY FOR MISSOURI
NATIONAL WEATHER SERVICE SPRINGFIELD MO
600 AM CDT SUN MAY 28 2017

NOTE: "FAIR" INDICATES FEW OR NO CLOUDS BELOW 12,000 FEET WITH NO
       SIGNIFICANT WEATHER AND/OR OBSTRUCTIONS TO VISIBILITY.
       CURRENT SKY AND/OR WEATHER CONDITIONS ARE NOT AVAILABLE FOR
       CHILLICOTHE AND FARMINGTON.

MOZ001>031-035>038-043-044-053-054-281200-
...NORTHERN AND WESTERN MISSOURI...

CITY           SKY/WX    TMP DP  RH WIND       PRES   REMARKS
KANSAS CTY INT CLEAR     58  57  97 NW7       29.88R
KANSAS C DTWN  CLEAR     60  58  92 CALM      29.87R
LEE`S SUMMIT   CLOUDY    59  59 100 N8        29.88R
ST JOSEPH      CLEAR     57  57 100 NW5       29.89R
CHILLICOTHE      N/A     57  55  93 W3        29.86R
KIRKSVILLE     CLOUDY    57  55  93 NW9       29.83R

$$
MOZ066>068-077>081-088>096-101>105-281200-
...SOUTHWEST MISSOURI...

CITY           SKY/WX    TMP DP  RH WIND       PRES   REMARKS
SPRINGFIELD    CLOUDY    62  61  96 N3        29.84R
JOPLIN         CLOUDY    64  62  93 N7        29.87R
BRANSON        CLOUDY    64  64 100 CALM      29.86R

$$
MOZ032>034-039>042-045>050-055>058-069>072-281200-
...CENTRAL MISSOURI...

CITY           SKY/WX    TMP DP  RH WIND       PRES   REMARKS
COLUMBIA       FOG       61  61 100 NW10      29.80R VSB 1/4
JEFFERSON CITY CLOUDY    63  60  90 NW7       29.80R
ROLLA          FOG       58  58 100 SW9       29.82R VSB 1/4
SEDALIA        CLOUDY    63  63 100 NW12      29.84S
WHITEMAN AFB   CLOUDY    60  60 100 N10       29.84R
WARRENSBURG    CLOUDY    59  55  88 NW5       29.85R
OSAGE BEACH    CLOUDY    61  61 100 CALM      29.82R FOG

$$
MOZ051-052-059>065-281200-
...EAST CENTRAL MISSOURI...

CITY           SKY/WX    TMP DP  RH WIND       PRES   REMARKS
ST LOUIS INTL  CLOUDY    64  60  87 SW5       29.75F
SPIRIT OF STL  CLOUDY    61  60  97 W3        29.75F
ST CHARLES     MOCLDY    63  61  93 SW5       29.74F

$$
MOZ072>076-082>087-097>100-106>115-281200-
...SOUTH CENTRAL AND SOUTHEAST MISSOURI...

CITY           SKY/WX    TMP DP  RH WIND       PRES   REMARKS
CAPE GIRARDEAU CLOUDY    64  61  90 S8        29.83R
POPLAR BLUFF   CLOUDY    65  63  93 SW6         N/A
WEST PLAINS    CLOUDY    63  61  93 S7        29.88R

$$




USA.gov is the U.S. government's official web portal to all federal, state and local government web resources and services.